User: anonymous   Login
Location: Peebles
(55.6412°N, 3.1714°W)
Time: 17:27:49
(UTC+01:00)
Language:

ATLAS 5 CENTAUR R/B - Orbit

View from above orbital plane
View from above orbital plane
View from above satellite
View from above satellite

Ground track
Ground track

The orbit data is extracted from the following two-line orbital elements,

1 32379U 07060B   22146.30861462  .00002369  00000-0  62516-3 0  9995
2 32379  60.8079 105.1979 5027502 168.4236 209.9991  5.53523874 57002
Epoch (UTC): 26 May 2022 07:24:24
Eccentricity: 0.5027502
inclination: 60.8079°
perigee height: 334 km
apogee height: 13908 km
right ascension of ascending node: 105.1979°
argument of perigee: 168.4236°
revolutions per day: 5.53523874
mean anomaly at epoch: 209.9991°
orbit number at epoch: 5700

The dashed part of the orbit path shows where the satellite is in the earth's shadow,  

DLR